EW2930 Weather Reports


time (UTC)temp
C
wind
direction
speed
KPH
gust
KPH
rain 1hr
cm
rain 24hr
cm
rain mn
cm
humidity
%
barometer
mb
20260504081716 -17 260 6.4 6.4 0.00 0.00 0.00
20260504080927 10 240 4.8 8.0 0.00 0.00 0.00 70 1004.1
20260504080247 10 254 6.4 8.0 0.00 0.00 0.00 70 1004.1
20260504070138 12 279 6.4 9.7 0.00 0.00 0.00 66 1005.1
20260504060138 13 263 8.0 12.9 0.00 0.00 0.00 62 1005.8
20260504050710 14 273 9.7 16.1 0.00 0.00 0.00 58 1005.8
20260504045350 14 265 8.0 16.1 0.00 0.00 0.00 58 1005.8
20260504044710 15 261 9.7 16.1 0.00 0.00 0.00 57 1005.8
20260504044031 15 253 8.0 14.5 0.00 0.00 0.00 57 1005.8
20260504043350 14 237 8.0 12.9 0.00 0.00 0.00 58 1005.8
20260504042710 15 221 6.4 12.9 0.00 0.00 0.00 58 1005.8
20260504042031 15 223 8.0 17.7 0.00 0.00 0.00 57 1005.8
20260504041349 15 214 8.0 16.1 0.00 0.00 0.00 57 1005.8
20260504040710 15 217 9.7 17.7 0.00 0.00 0.00 56 1005.8
20260504040031 15 227 9.7 17.7 0.00 0.00 0.00 56 1005.8
20260504035351 15 220 9.7 16.1 0.00 0.00 0.00 56 1005.8
20260504034711 -17 212 6.4 6.4 0.00 0.00 0.00
20260504033921 15 222 8.0 16.1 0.00 0.00 0.00 55 1005.8
20260504033242 15 222 6.4 14.5 0.00 0.00 0.00 55 1005.8
20260504032602 15 208 8.0 12.9 0.00 0.00 0.00 55 1005.8
20260504031923 -17 231 8.0 8.0 0.00 0.00 0.00
20260504031022 16 213 8.0 14.5 0.00 0.00 0.00 54 1005.8
20260504030342 16 217 8.0 14.5 0.00 0.00 0.00 54 1005.8
20260504025703 16 216 6.4 14.5 0.00 0.00 0.00 53 1005.8
20260504025023 16 212 6.4 12.9 0.00 0.00 0.00 53 1005.8
20260504024342 16 284 1.6 4.8 0.00 0.00 0.00 52 1005.8
20260504023552 16 220 6.4 12.9 0.00 0.00 0.00 52 1006.2
20260504022913 16 218 6.4 9.7 0.00 0.00 0.00 51 1006.2
20260504022232 16 221 6.4 11.3 0.00 0.00 0.00 50 1005.8
20260504021553 16 219 6.4 11.3 0.00 0.00 0.00 50 1005.8
20260504020912 17 218 6.4 11.3 0.00 0.00 0.00 49 1005.8
20260504020232 17 209 6.4 11.3 0.00 0.00 0.00 48 1005.8
20260504015552 17 224 6.4 12.9 0.00 0.00 0.00 48 1005.8
20260504014913 17 229 8.0 12.9 0.00 0.00 0.00 47 1005.8
20260504014233 -17 213 9.7 9.7 0.00 0.00 0.00
20260504013335 17 241 9.7 20.9 0.00 0.00 0.00 46 1005.8
20260504012655 17 234 8.0 12.9 0.00 0.00 0.00 46 1005.8
20260504012017 17 230 6.4 14.5 0.00 0.00 0.00 46 1005.5
20260504011335 18 231 6.4 14.5 0.00 0.00 0.00 46 1005.5
20260504010655 18 222 6.4 14.5 0.00 0.00 0.00 45 1005.5
20260504010015 18 221 6.4 14.5 0.00 0.00 0.00 44 1005.5
20260504005336 18 223 6.4 12.9 0.00 0.00 0.00 44 1005.1
20260504004655 -17 242 4.8 4.8 0.00 0.00 0.00
20260504003906 19 228 8.0 16.1 0.00 0.00 0.00 43 1005.5
20260504003227 19 235 8.0 16.1 0.00 0.00 0.00 42 1005.5
20260504002547 19 234 8.0 16.1 0.00 0.00 0.00 42 1005.5
20260504001906 20 247 6.4 24.1 0.00 0.00 0.00 42 1005.5
20260504001227 20 242 12.9 24.1 0.00 0.00 0.00 42 1005.5
20260504000547 -17 212 6.4 6.4 0.00 0.00 0.00
20260503235758 20 243 9.7 25.7 0.00 0.00 0.00 41 1005.5
20260503235118 20 248 12.9 27.4 0.00 0.00 0.00 40 1005.5
20260503234438 20 246 12.9 27.4 0.00 0.00 0.00 40 1005.5
20260503233759 20 263 11.3 22.5 0.00 0.00 0.00 40 1005.5
20260503233118 20 256 12.9 22.5 0.00 0.00 0.00 40 1005.5
20260503232439 -17 265 12.9 12.9 0.00 0.00 0.00
20260503231648 -17 306 19.3 19.3 0.00 0.00 0.00
20260503230900 20 261 16.1 30.6 0.00 0.00 0.00 40 1005.8
20260503230220 20 266 19.3 33.8 0.00 0.00 0.00 40 1005.8
20260503225540 20 267 17.7 30.6 0.00 0.00 0.00 40 1005.8
20260503224900 20 289 20.9 30.6 0.00 0.00 0.00 39 1005.8
20260503224220 -17 253 8.0 8.0 0.00 0.00 0.00
20260503223432 20 273 17.7 33.8 0.00 0.00 0.00 39 1005.8
20260503222752 20 262 19.3 38.6 0.00 0.00 0.00 39 1005.8
20260503222113 20 267 24.1 40.2 0.00 0.00 0.00 40 1005.8
20260503221432 20 280 19.3 35.4 0.00 0.00 0.00 40 1005.8
20260503220752 20 264 17.7 33.8 0.00 0.00 0.00 38 1005.8
20260503220113 20 245 12.9 35.4 0.00 0.00 0.00 39 1005.8
20260503215432 20 221 12.9 32.2 0.00 0.00 0.00 40 1005.8
20260503214752 19 219 16.1 30.6 0.00 0.00 0.00 40 1005.8
20260503214112 19 211 17.7 32.2 0.00 0.00 0.00 40 1005.8
20260503213432 20 230 16.1 35.4 0.00 0.00 0.00 39 1005.8
20260503212753 20 224 12.9 37.0 0.00 0.00 0.00 40 1006.2
20260503212113 19 254 22.5 41.8 0.00 0.00 0.00 41 1006.2
20260503211433 19 252 17.7 41.8 0.00 0.00 0.00 40 1006.5
20260503210753 19 253 19.3 35.4 0.00 0.00 0.00 41 1006.5
20260503210113 19 235 14.5 38.6 0.00 0.00 0.00 40 1006.9
20260503205433 18 215 19.3 35.4 0.00 0.00 0.00 40 1006.9
20260503204753 -17 256 19.3 19.3 0.00 0.00 0.00
20260503204006 18 229 16.1 43.5 0.00 0.00 0.00 40 1007.2
20260503203327 18 223 19.3 43.5 0.00 0.00 0.00 40 1007.2
20260503202646 18 227 22.5 41.8 0.00 0.00 0.00 40 1007.2
20260503202007 18 211 24.1 38.6 0.00 0.00 0.00 39 1007.2
20260503201326 18 240 14.5 38.6 0.00 0.00 0.00 39 1007.6
20260503200645 18 242 19.3 41.8 0.00 0.00 0.00 40 1007.6
20260503200005 17 232 19.3 35.4 0.00 0.00 0.00 43 1007.9
20260503195326 17 230 17.7 41.8 0.00 0.00 0.00 45 1007.9
20260503194645 17 203 17.7 38.6 0.00 0.00 0.00 46 1007.9
20260503194006 17 224 19.3 41.8 0.00 0.00 0.00 47 1008.3
20260503193325 16 217 25.7 45.1 0.00 0.00 0.00 49 1008.3
20260503192645 16 215 25.7 40.2 0.00 0.00 0.00 47 1008.3
20260503192006 -17 207 17.7 17.7 0.00 0.00 0.00
20260503191215 16 201 22.5 41.8 0.00 0.00 0.00 48 1008.6
20260503190534 -17 196 20.9 20.9 0.00 0.00 0.00
20260503185746 16 207 16.1 43.5 0.00 0.00 0.00 47 1008.6
20260503185106 16 195 17.7 48.3 0.00 0.00 0.00 46 1008.6
20260503184426 15 201 22.5 45.1 0.00 0.00 0.00 46 1008.6
20260503183746 15 199 24.1 41.8 0.00 0.00 0.00 46 1008.6
20260503183105 15 194 17.7 41.8 0.00 0.00 0.00 46 1008.6
20260503182425 15 208 20.9 40.2 0.00 0.00 0.00 46 1008.6
20260503181745 -17 194 27.4 27.4 0.00 0.00 0.00
20260503180957 15 211 19.3 40.2 0.00 0.00 0.00 47 1009.0
20260503180317 15 203 20.9 43.5 0.00 0.00 0.00 48 1009.3
20260503175637 14 205 24.1 46.7 0.00 0.00 0.00 48 1009.3
20260503174957 14 202 25.7 46.7 0.00 0.00 0.00 49 1009.3
20260503174318 14 192 22.5 37.0 0.00 0.00 0.00 50 1009.3
20260503173637 15 213 16.1 35.4 0.00 0.00 0.00 48 1009.7
20260503172957 15 207 19.3 48.3 0.00 0.00 0.00 49 1010.0
20260503172317 14 213 25.7 48.3 0.00 0.00 0.00 50 1010.0
20260503171637 -17 196 19.3 19.3 0.00 0.00 0.00
20260503170849 13 208 22.5 38.6 0.00 0.00 0.03 54 1010.3
20260503170208 13 212 27.4 46.7 0.00 0.00 0.03 55 1010.7
20260503160209 10 209 14.5 30.6 0.00 0.00 0.03 66 1012.1
20260503150850 11 242 20.9 45.1 0.00 0.00 0.00 57 1013.1
20260503150209 12 232 22.5 45.1 0.00 0.00 0.00 55 1012.8
20260503140209 11 240 14.5 29.0 0.00 0.00 0.00 56 1013.1
20260503130849 10 247 16.1 29.0 0.00 0.00 0.00 54 1013.8
20260503130209 10 227 11.3 22.5 0.00 0.00 0.00 54 1013.8
20260503110740 7 222 11.3 22.5 0.00 0.00 0.00 57 1013.1